Location: Colossi of Memnon
(25.7167°N, 32.6167°E)
Time: 21:06:07
(UTC+00:00)

CZ-4C R/B - Pass Details

Date: 05 March 2021
Orbit: 613 x 1388 km, 63.4° (Epoch: 20 April)

Event Time Altitude Azimuth Distance (km) Brightness Sun altitude
Exits shadow 01:57:42 35° 123° (ESE) 1,060 3.0 -30.3°
Maximum altitude 01:58:06 35° 111° (ESE) 1,053 3.1 -30.2°
Drops below altitude 10° 02:02:36 10° 46° (NE) 2,215 5.0 -29.2°
Sets 02:05:18 0° 38° (NE) 3,249 5.9 -28.6°
